Find Starlink 5346

NORAD ID: 56518 Int'l Des: 2023-065 Owner: SPXS Country: US Constellation: starlink operational
LEOCIRCULAR

当前视图

正在加载3D地球...

About Starlink 5346

Starlink 5346 (NORAD 56518) is a starlink constellation satellite (v1.5) launched May 14, 2023 by SPXS of US. It operates in LEO, CIRCULAR orbit with a mass of 305.00 kg.

即将过境

Passes for default location (London). Set your location on the main map for personalized predictions.

高度历史

Loading altitude history...

两行轨道根数

1 56518U 23065R 26264.22060817 -.00000481 00000-0 -79635-5 0 9997
2 56518 43.0012 188.2225 0000763 256.0812 103.9955 15.27576002186502
Epoch: Sep 21, 2026 • Age: 6 hours

当前状态

高度 482.4 km
远地点 / 近地点 N/A
速度 7.63 km/s
星下点 7.75°N, 20.4°E
发射日期 May 14, 2023
运行时间 3.3 years
类型 internet

技术详情

分类 Payload
质量 305.00 kg
干质量 290.00 kg
长度 0.20 m
跨度 9.00 m
形状 ? Box + pan
制造商 SPXS
平台类型 Starlink
阶段状态 In Orbit
所有者/国家 SPXS/US

Most Searched